Location: Bienfait
(49.1431°N, 102.8077°W)
Time: 00:46:48
(UTC+00:00)

BlueWalker 3 - Visible Passes

Search period start: 07 December 2022 00:00
Search period end: 17 December 2022 00:00
Orbit: 501 x 518 km, 53.2° (Epoch: 06 December)

Date Brightness Start Highest point End Pass type
(mag) Time Alt. Az. Time Alt. Az. Time Alt. Az.
07 Dec 2.1 00:19:55 10° WNW 00:23:48 57° NNE 00:25:52 25° E visible
07 Dec 4.0 01:58:42 10° WNW 02:00:42 27° W 02:00:42 27° W visible
08 Dec 2.1 00:01:31 10° WNW 00:05:24 58° NNE 00:08:30 15° E visible
08 Dec 3.2 01:40:18 10° WNW 01:43:20 39° WSW 01:43:20 39° WSW visible
08 Dec 2.1 23:43:06 10° WNW 23:47:00 60° NNE 23:50:52 10° E visible
09 Dec 2.9 01:21:54 10° WNW 01:25:37 42° SW 01:26:07 40° SSW visible
10 Dec 3.1 01:03:30 10° WNW 01:07:11 40° SW 01:09:06 23° SSE visible
11 Dec 3.3 00:45:06 10° WNW 00:48:45 38° SW 00:52:21 10° SSE visible
12 Dec 3.5 00:26:42 10° WNW 00:30:19 36° SW 00:33:54 10° SSE visible
13 Dec 3.7 00:08:18 10° WNW 00:11:52 34° SW 00:15:24 10° SSE visible
13 Dec 3.9 23:49:53 10° WNW 23:53:25 33° SW 23:56:55 10° SSE visible
14 Dec 4.1 23:31:28 10° WNW 23:34:57 31° SW 23:38:25 10° SSE visible
